EW1898 Weather Reports


time (UTC)temp
C
wind
direction
speed
KPH
gust
KPH
rain 1hr
cm
rain 24hr
cm
rain mn
cm
humidity
%
barometer
mb
20191015150131 10 264 0.0 4.8 0.00 0.00 0.00 65 1020.7
20191015144558 10 284 0.0 3.2 0.00 0.00 0.00 68 1020.7
20191015143057 10 284 0.0 6.4 0.00 0.00 0.00 67 1020.6
20191015141610 9 297 0.0 3.2 0.00 0.00 0.00 72 1020.6
20191015140104 8 300 0.0 3.2 0.00 0.00 0.00 75 1020.6
20191015134531 8 286 0.0 4.8 0.00 0.00 0.00 77 1020.7
20191015133048 8 288 0.0 1.6 0.00 0.00 0.00 78 1020.7
20191015131548 7 295 0.0 3.2 0.00 0.00 0.00 79 1020.7
20191015130100 7 300 0.0 3.2 0.00 0.00 0.00 82 1020.7
20191015124538 6 280 0.0 0.0 0.00 0.00 0.00 83 1020.6
20191015123030 6 291 0.0 0.0 0.00 0.00 0.00 84 1020.3
20191015121605 6 291 0.0 0.0 0.00 0.00 0.00 86 1020.2
20191015120030 5 283 0.0 0.0 0.00 0.00 0.00 87 1019.9
20191015114608 5 283 0.0 0.0 0.00 0.00 0.00 88 1019.9
20191015113021 5 283 0.0 0.0 0.00 0.00 0.00 89 1019.7
20191015111512 5 283 0.0 0.0 0.00 0.00 0.00 87 1019.5
20191015110008 5 283 0.0 0.0 0.00 0.00 0.00 87 1019.4
20191015104513 5 283 0.0 0.0 0.00 0.00 0.00 87 1019.2
20191015103005 6 283 0.0 0.0 0.00 0.00 0.00 87 1019.1
20191015101501 6 283 0.0 1.6 0.00 0.00 0.00 87 1019.0
20191015100250 6 283 0.0 1.6 0.00 0.00 0.00 88 1018.9
20191015094716 6 283 0.0 1.6 0.00 0.00 0.00 88 1018.7
20191015093209 7 291 0.0 0.0 0.00 0.00 0.00 87 1018.5
20191015091642 7 291 0.0 0.0 0.00 0.00 0.00 88 1018.4
20191015090244 7 291 0.0 0.0 0.00 0.00 0.00 86 1018.1
20191015084642 7 291 0.0 0.0 0.00 0.00 0.00 85 1017.9
20191015083135 7 291 0.0 0.0 0.00 0.00 0.00 85 1017.7
20191015081645 8 291 0.0 0.0 0.00 0.00 0.00 85 1017.7
20191015080112 8 291 0.0 0.0 0.00 0.00 0.00 87 1017.4
20191015074557 8 291 0.0 0.0 0.00 0.00 0.00 92 1017.3
20191015073051 8 291 0.0 0.0 0.00 0.00 0.00 92 1017.1
20191015071557 8 291 0.0 0.0 0.00 0.00 0.00 94 1017.1
20191015070104 8 291 0.0 0.0 0.00 0.00 0.00 97 1017.1
20191015064542 9 291 0.0 0.0 0.00 0.00 0.00 97 1017.0
20191015063129 9 291 0.0 0.0 0.00 0.00 0.00 98 1016.9
20191015061550 9 291 0.0 0.0 0.00 0.00 0.00 99 1016.8
20191015060034 10 291 0.0 0.0 0.00 0.00 0.00 99 1016.7
20191015054528 10 291 0.0 0.0 0.00 0.00 0.00 99 1016.5
20191015053015 10 291 0.0 0.0 0.00 0.00 0.00 99 1016.3
20191015051534 11 291 0.0 0.0 0.00 0.00 0.00 99 1016.2
20191015050020 11 291 0.0 0.0 0.00 0.00 0.00 99 1016.1
20191015044514 11 291 0.0 0.0 0.00 0.00 0.00 99 1016.0
20191015043007 11 291 0.0 0.0 0.00 0.00 0.00 99 1015.8
20191015041532 11 291 0.0 0.0 0.00 0.00 0.00 99 1015.7
20191015040006 11 291 0.0 0.0 0.00 0.00 0.00 99 1015.6
20191015034652 11 291 0.0 0.0 0.00 0.00 0.00 99 1015.4
20191015033213 11 291 0.0 0.0 0.00 0.00 0.00 99 1015.2
20191015031620 11 291 0.0 0.0 0.00 0.00 0.00 98 1015.1
20191015030123 12 291 0.0 0.0 0.00 0.00 0.00 98 1015.0
20191015024701 12 291 0.0 3.2 0.00 0.00 0.00 98 1015.0
20191015023112 12 298 0.0 0.0 0.00 0.00 0.00 98 1015.0
20191015021645 12 298 0.0 1.6 0.00 0.00 0.00 98 1014.8
20191015020142 12 298 0.0 0.0 0.00 0.00 0.00 98 1014.6
20191015014614 12 298 0.0 0.0 0.00 0.00 0.00 98 1014.5
20191015013158 12 298 0.0 0.0 0.00 0.00 0.00 98 1014.3
20191015011648 12 298 0.0 0.0 0.00 0.00 0.00 98 1014.2
20191015010206 12 298 0.0 1.6 0.00 0.00 0.00 98 1013.9
20191015004729 12 298 0.0 0.0 0.00 0.00 0.00 97 1013.6
20191015003128 12 298 0.0 1.6 0.00 0.00 0.00 97 1013.5
20191015001701 12 310 0.0 3.2 0.00 0.00 0.00 97 1013.4
20191015000137 12 324 1.6 4.8 0.00 0.00 0.00 97 1013.2
20191014234719 12 316 0.0 0.0 0.00 0.00 0.00 95 1013.0
20191014233146 13 293 0.0 1.6 0.00 0.00 0.00 95 1012.9
20191014231619 13 293 0.0 0.0 0.00 0.00 0.00 94 1012.6
20191014224648 14 294 0.0 0.0 0.00 0.00 0.00 92 1012.5
20191014223122 14 293 0.0 1.6 0.00 0.00 0.00 90 1012.4
20191014221708 15 293 0.0 0.0 0.00 0.00 0.00 88 1012.3
20191014220223 15 291 0.0 0.0 0.00 0.00 0.00 85 1012.2
20191014214609 16 291 0.0 0.0 0.00 0.00 0.00 82 1012.0
20191014213129 16 291 0.0 0.0 0.00 0.00 0.00 79 1011.8
20191014211720 16 291 0.0 0.0 0.00 0.00 0.00 77 1011.7
20191014210139 17 291 0.0 0.0 0.00 0.00 0.00 75 1011.5
20191014204635 17 291 0.0 0.0 0.00 0.00 0.00 75 1011.3
20191014203124 17 291 0.0 1.6 0.00 0.00 0.00 74 1011.4
20191014201637 17 259 0.0 3.2 0.00 0.00 0.00 73 1011.4
20191014200352 17 270 0.0 1.6 0.00 0.00 0.00 73 1011.5
20191014194555 17 286 1.6 6.4 0.00 0.00 0.00 72 1011.6
20191014193258 17 271 0.0 1.6 0.00 0.00 0.00 71 1011.7
20191014191625 17 288 0.0 4.8 0.00 0.00 0.00 69 1012.0
20191014190151 17 279 0.0 1.6 0.00 0.00 0.00 68 1012.1
20191014184556 17 272 0.0 4.8 0.00 0.00 0.00 68 1012.3
20191014183039 17 284 0.0 1.6 0.00 0.00 0.00 70 1012.4
20191014181556 17 296 0.0 6.4 0.00 0.00 0.00 69 1012.5
20191014180035 17 286 1.6 6.4 0.00 0.00 0.00 69 1012.8
20191014174541 17 290 0.0 3.2 0.00 0.00 0.00 73 1013.1
20191014173029 16 298 0.0 1.6 0.00 0.00 0.00 73 1013.3
20191014171544 16 277 0.0 3.2 0.00 0.00 0.00 75 1013.4
20191014170035 16 108 0.0 3.2 0.00 0.00 0.00 73 1013.6
20191014164514 15 291 0.0 1.6 0.00 0.00 0.00 78 1013.9
20191014163020 15 293 0.0 0.0 0.00 0.00 0.00 82 1014.1
20191014161506 14 317 0.0 1.6 0.00 0.00 0.00 85 1014.5
20191014160002 13 317 0.0 4.8 0.00 0.00 0.00 86 1014.7
20191014154705 13 330 0.0 4.8 0.00 0.00 0.00 89 1014.9
20191014153202 12 302 0.0 3.2 0.00 0.00 0.00 91 1015.1
20191014151637 12 286 0.0 1.6 0.00 0.00 0.00 94 1015.4